Wind_Speed
13 13 13 13 13 14 14 15 15 15 15 16 16 16 16 16 16 15 15 14 13 12 11 10 10 9 9 8 7 7 8 7 6 7 6 5 5 5 5 4 4 3 3 3 3 3 4 4 5 4 4 3 2 3 3 4 4 5 7 8 5 5 6 6 8 9 10 9 8 9 10 11 11 11 10 11 12 11 10 9 8 7 6 7 7 7 7 6
13 13 13 13 13 13 14 14 15 15 15 15 15 16 16 16 15 15 14 14 13 12 11 10 10 10 9 8 7 7 8 7 6 6 5 5 5 5 4 4 4 4 4 4 4 3 3 4 5 4 3 3 3 3 3 3 5 6 9 9 5 5 8 8 8 9 9 9 9 10 11 12 11 9 8 9 11 11 10 9 7 6 6 6 6 7 7 7
12 12 12 12 12 13 13 13 14 14 15 15 15 15 16 15 15 15 14 13 13 12 11 11 11 10 9 8 7 7 8 6 5 5 5 5 5 5 4 4 5 5 4 4 4 3 4 4 5 5 3 3 4 3 3 4 6 8 10 10 6 6 9 8 8 9 10 10 10 9 10 11 11 9 7 8 11 12 11 9 8 6 7 6 6 7 7 8
12 12 12 12 12 12 13 13 13 14 14 15 15 15 15 15 15 14 14 13 13 12 12 12 11 10 9 8 7 7 7 6 5 5 5 6 5 5 5 5 5 5 5 4 4 4 4 5 5 5 3 3 4 3 3 4 6 8 9 9 7 7 8 7 8 10 12 13 10 9 10 10 11 10 9 10 12 13 12 10 10 10 9 9 9 10 10 9
12 12 12 12 13 13 13 14 14 14 15 15 15 15 15 15 15 14 14 13 13 13 12 12 11 10 9 8 7 7 6 5 5 6 5 5 5 5 5 6 6 5 5 5 5 4 5 5 5 5 3 4 4 3 4 5 6 7 9 9 8 8 7 6 7 9 11 11 10 10 11 11 11 11 11 12 13 13 13 13 13 13 12 12 12 12 12 12
13 13 13 13 13 14 14 14 15 15 15 15 16 16 16 15 15 15 14 14 14 13 13 12 11 11 10 8 7 7 6 5 5 5 5 4 4 5 5 6 6 6 6 5 5 5 5 5 5 4 3 5 4 3 4 5 6 7 8 9 9 10 7 5 6 7 8 10 10 10 11 11 12 12 13 13 13 13 13 15 14 14 14 13 13 13 13 13
14 14 14 14 14 14 14 15 15 15 16 16 16 16 16 16 16 15 15 15 15 15 14 13 12 11 11 9 8 8 8 7 7 6 6 5 5 5 5 6 6 6 6 6 6 6 7 7 5 4 5 6 5 4 5 5 6 7 8 8 9 10 9 7 7 8 9 10 11 11 12 12 13 13 14 14 13 13 14 16 16 15 14 14 15 15 15 14
15 15 15 15 15 15 15 15 16 16 16 17 17 17 17 17 16 16 16 16 16 16 15 14 13 12 12 11 10 9 9 9 8 8 8 7 7 6 6 7 7 7 7 7 8 8 7 6 5 6 7 6 6 4 5 6 7 9 9 7 7 8 9 9 9 10 11 12 12 12 12 12 14 15 15 15 14 14 14 16 17 16 15 16 16 16 16 15
16 16 16 16 16 16 16 17 17 17 17 18 18 18 18 18 18 18 18 18 17 17 16 16 15 14 14 13 11 10 10 10 9 9 8 8 7 7 7 7 8 8 8 8 9 8 7 6 6 7 7 7 7 6 6 7 8 9 9 8 7 8 10 10 10 11 12 12 13 13 13 14 16 18 18 16 14 14 14 15 17 17 17 18 18 17 17 16
17 17 17 17 17 17 17 18 18 18 19 19 20 20 20 20 20 20 19 19 19 18 18 17 16 16 15 14 13 11 12 11 10 9 9 9 8 8 7 8 9 9 8 8 9 9 8 8 8 8 8 8 9 9 8 9 9 9 9 10 9 10 12 12 10 11 13 13 14 14 15 17 18 20 19 15 14 15 15 17 17 18 19 19 18 18 18 17
19 19 18 18 18 18 18 18 18 19 19 20 21 21 22 22 22 22 21 20 20 19 19 18 18 17 16 16 14 13 13 12 11 10 10 10 9 9 9 9 9 9 8 9 10 10 10 10 10 10 9 9 10 10 10 11 11 11 11 11 11 12 14 13 11 11 14 15 14 15 17 18 20 20 18 15 16 17 17 18 18 19 19 19 19 18 18 17
22 21 21 20 20 19 19 18 18 18 18 19 20 21 22 23 23 22 22 21 21 20 20 20 19 19 18 18 16 15 15 14 13 12 12 12 11 11 11 10 10 10 9 9 11 11 11 12 12 11 10 11 11 10 9 10 11 11 12 12 12 14 15 14 13 12 14 15 15 15 18 19 19 19 17 16 16 16 16 16 16 17 17 18 18 18 17 17
25 24 23 22 21 20 20 19 18 18 18 18 18 19 20 21 22 22 22 22 21 21 21 21 21 20 20 20 18 17 17 15 14 14 13 13 13 13 12 11 11 11 10 10 11 12 13 14 14 13 13 13 13 11 10 10 11 11 13 14 13 15 16 14 13 13 14 14 13 14 18 19 17 17 16 15 16 16 16 16 16 17 17 18 18 18 17 17
27 26 25 24 23 22 21 20 19 19 18 18 19 19 19 20 21 22 22 22 22 22 22 22 22 22 22 21 20 19 18 17 16 15 14 14 14 14 13 13 12 12 11 11 12 13 14 15 15 14 14 14 14 14 13 13 14 13 15 16 15 15 16 14 13 12 12 13 13 14 19 20 17 17 16 16 17 17 18 18 19 19 18 19 19 19 19 18
30 29 28 27 26 25 24 22 22 21 20 20 20 20 20 20 21 21 22 23 23 23 23 24 24 24 24 23 21 20 19 18 16 16 16 16 15 15 15 15 14 13 13 13 13 14 15 15 16 16 15 15 15 15 15 15 16 16 15 15 15 15 15 14 14 12 12 13 14 14 17 19 17 17 17 17 18 18 18 19 19 19 20 20 21 21 20 20
33 32 31 30 29 28 26 25 24 23 23 23 22 22 22 22 22 22 23 24 24 24 25 25 25 25 25 24 23 23 21 19 18 18 18 18 17 16 16 16 15 15 14 14 14 15 16 16 17 17 17 16 16 16 16 16 16 17 17 16 15 14 12 13 12 11 12 13 15 16 17 19 18 17 17 18 18 19 21 21 22 22 23 23 23 23 23 22
35 34 34 33 31 31 29 28 27 26 25 25 25 25 24 24 23 23 24 24 25 26 26 27 27 27 26 24 23 22 20 19 19 19 19 18 17 16 16 15 15 16 16 16 16 16 17 18 18 19 18 17 17 18 16 15 17 16 16 15 12 11 11 12 11 11 13 14 16 18 21 22 20 19 20 20 22 23 24 24 25 25 25 26 26 26 26 26
37 36 36 35 34 33 32 31 30 29 29 28 28 27 27 26 25 25 26 26 26 27 28 28 28 27 27 26 24 21 20 19 19 18 19 18 17 16 16 15 16 16 16 16 17 17 18 19 20 20 20 19 20 22 19 16 16 14 12 11 10 10 11 11 11 12 13 16 17 19 24 26 23 23 25 25 25 27 26 26 26 27 27 27 27 27 27 27
38 38 37 37 37 36 34 34 33 32 32 31 31 30 29 29 28 28 28 29 29 28 28 28 28 28 28 26 24 23 22 22 21 21 21 20 18 18 18 17 17 17 17 17 17 18 19 21 22 23 22 20 20 22 20 17 17 15 13 14 14 14 14 13 12 13 15 19 21 23 27 30 29 28 29 28 29 29 29 28 29 28 28 28 28 28 27 28
41 40 40 39 39 38 37 36 36 35 35 34 33 32 32 32 31 31 31 31 31 29 28 29 30 30 30 29 27 25 25 24 23 22 21 20 19 19 18 17 16 16 16 16 18 19 20 23 26 25 22 19 20 21 20 18 17 17 16 17 18 19 20 19 18 19 21 24 27 27 29 32 31 30 30 30 31 31 31 30 32 32 31 31 30 29 29 29
41 41 42 42 42 41 40 39 39 38 38 37 36 34 34 34 33 33 32 32 31 30 31 32 32 33 34 32 31 29 29 29 27 25 25 24 22 21 20 18 17 17 16 16 19 20 22 26 27 22 19 19 20 20 20 19 18 17 16 18 19 21 23 21 21 23 24 27 29 28 29 32 32 31 31 32 34 34 33 33 34 34 34 34 33 33 32 31
40 41 41 42 43 43 42 42 41 41 41 40 38 37 35 34 34 33 32 33 33 32 32 32 34 36 37 35 34 33 33 33 31 30 29 27 25 23 22 22 21 19 18 20 21 21 25 28 24 19 19 20 20 20 19 18 17 16 17 19 21 22 22 22 23 23 23 25 27 27 30 34 34 33 33 35 37 37 35 35 34 35 36 34 33 33 33 33
43 41 40 41 41 42 42 42 43 43 42 41 39 38 36 36 35 34 33 34 34 34 34 34 35 37 37 37 37 36 36 36 34 33 32 30 28 26 26 25 22 21 21 23 23 23 26 24 18 15 16 19 20 21 19 18 18 19 20 21 24 24 23 23 24 23 21 22 25 27 33 39 38 38 38 36 36 34 31 30 30 31 32 29 27 28 29 30
46 43 41 40 40 40 40 40 43 44 42 41 39 38 37 36 35 34 33 34 37 38 36 35 35 38 39 37 36 36 36 36 35 35 35 33 30 28 29 26 24 25 24 24 25 27 30 24 20 18 17 17 18 19 19 19 21 22 23 25 26 25 23 23 23 21 22 23 25 28 33 42 41 35 34 30 27 28 26 26 27 28 29 28 27 27 25 26
45 43 42 40 39 40 38 40 44 43 41 39 37 36 35 35 35 34 32 31 38 41 38 37 39 40 41 38 38 37 35 37 37 36 36 34 31 30 29 27 27 28 26 24 26 30 32 27 24 25 24 22 22 22 21 20 21 23 24 25 25 23 21 21 20 20 23 23 24 23 20 28 35 32 32 32 30 31 31 31 32 31 31 31 30 27 22 21
44 44 43 41 41 40 39 43 43 39 38 37 34 34 33 35 34 32 29 26 36 46 42 39 39 40 42 42 41 37 35 40 41 38 36 34 32 30 29 30 30 29 26 23 25 32 34 28 25 26 25 25 26 27 26 23 23 25 27 26 24 23 22 20 19 19 19 18 19 16 11 21 39 42 39 38 36 34 33 32 33 32 31 31 29 27 22 19
44 45 44 43 44 43 43 45 41 37 36 32 32 31 31 33 29 28 23 14 27 44 42 40 40 39 40 39 38 35 35 41 39 36 38 35 34 32 32 34 33 31 28 23 25 31 32 28 27 27 25 25 27 28 27 25 25 26 28 27 24 24 22 19 19 20 21 22 20 20 19 24 40 47 42 38 35 33 33 32 31 29 27 26 27 26 24 22
42 45 46 46 47 46 46 46 42 38 33 30 31 29 28 28 23 23 16 4 15 29 28 33 39 40 39 35 33 33 37 41 35 32 36 34 34 35 35 36 35 33 30 27 31 34 31 27 26 25 25 26 27 25 24 24 25 26 26 25 24 23 21 20 20 21 24 24 21 24 24 19 30 43 40 36 37 36 33 29 25 23 21 21 21 22 23 22
38 42 46 48 48 48 50 50 48 41 34 32 30 27 27 24 20 18 9 5 20 25 22 26 30 33 36 35 33 33 37 39 35 33 32 30 32 34 35 35 34 34 32 33 36 34 30 28 26 25 27 27 24 21 21 22 23 25 24 24 24 21 20 19 19 22 22 19 19 26 24 15 25 40 35 32 37 34 28 24 22 21 19 18 18 18 20 21
37 39 42 47 51 52 53 54 52 43 37 34 30 29 27 22 22 17 7 12 27 25 22 24 25 27 29 32 34 35 35 36 35 33 31 30 31 31 32 31 30 33 34 33 35 35 33 31 29 28 29 28 24 22 23 23 22 24 23 21 21 20 21 20 20 21 15 14 23 30 29 21 16 26 26 23 26 27 26 26 24 21 18 16 16 16 18 19
38 39 40 45 51 54 54 54 52 45 39 35 32 31 28 25 26 17 8 25 33 28 28 25 25 29 29 30 32 32 34 35 34 33 32 32 31 31 32 31 30 30 31 33 34 35 36 35 33 33 33 31 27 25 26 25 24 24 23 22 19 14 14 14 14 13 6 9 21 24 25 24 19 21 22 18 22 28 28 23 20 19 18 17 16 15 17 19
39 40 42 44 46 49 52 53 50 44 39 36 34 34 33 28 24 20 22 30 24 25 30 26 28 33 31 30 28 27 30 32 33 34 33 33 33 34 33 33 33 28 29 35 36 34 37 38 36 34 35 34 30 28 27 27 26 25 24 22 16 6 4 5 4 5 8 12 17 12 10 21 31 37 34 27 29 29 22 17 17 19 18 18 18 17 18 19
39 40 42 45 45 45 47 47 48 47 42 37 34 37 38 26 21 33 42 36 19 14 16 18 25 29 27 28 27 26 28 29 31 31 31 32 32 34 33 33 35 31 29 31 33 33 31 33 36 37 36 37 36 34 31 29 28 29 29 25 17 6 1 4 3 3 9 13 16 14 12 18 29 36 35 31 26 20 15 15 19 20 19 17 17 17 18 19
38 39 42 47 46 45 46 43 44 48 46 40 36 40 38 24 27 44 53 51 39 21 12 9 15 21 26 28 28 28 29 30 31 29 30 32 33 35 35 34 35 35 34 29 27 29 23 20 28 32 30 31 33 34 35 34 30 28 29 26 22 16 8 5 4 3 4 6 7 12 11 11 16 23 26 24 21 19 19 20 21 22 21 18 16 16 17 19
37 38 41 47 48 47 47 43 41 45 47 44 41 46 41 33 41 52 57 63 56 35 18 8 10 19 25 27 27 29 30 31 31 31 31 34 35 36 35 35 35 36 37 31 25 25 24 23 25 23 20 18 15 18 25 31 29 25 24 25 26 26 23 15 8 8 7 8 4 12 15 20 25 32 34 30 31 31 29 28 26 24 22 21 20 19 19 19
38 40 42 46 50 50 48 46 43 44 47 45 45 51 50 48 53 56 57 60 57 48 35 19 14 20 24 27 30 30 32 33 31 31 34 35 36 37 35 34 35 35 37 36 29 23 21 24 27 24 23 19 13 13 18 23 24 21 23 28 28 26 25 20 14 12 10 9 9 13 22 31 34 39 40 35 35 33 27 27 25 22 22 21 21 21 20 20
39 42 44 47 51 52 48 46 45 45 47 46 51 55 55 58 59 55 52 51 48 50 49 37 29 29 27 30 34 34 34 34 32 32 34 34 34 37 38 36 35 35 36 37 35 30 21 18 21 22 22 21 20 18 19 23 24 22 22 23 23 21 21 18 9 6 3 5 8 13 22 29 26 27 30 27 26 25 22 22 22 20 20 19 18 17 17 19
39 43 47 48 50 49 44 43 45 45 45 48 54 56 56 61 61 55 49 43 36 40 48 47 41 36 33 33 34 35 35 35 35 33 32 30 30 33 35 35 35 34 34 35 34 32 27 19 17 21 19 17 19 19 20 24 26 26 24 20 17 15 14 17 11 3 2 3 6 10 19 29 33 33 31 28 25 23 20 19 20 18 15 13 14 14 16 18
36 39 48 51 49 46 44 45 46 46 48 51 55 56 56 61 61 53 47 37 30 34 43 48 44 36 35 37 35 35 35 36 36 35 32 31 32 35 33 32 31 29 30 35 36 34 31 24 18 22 22 18 20 24 26 26 26 28 28 24 21 16 11 17 18 9 3 3 6 8 10 23 35 36 30 25 21 18 18 20 19 14 11 11 12 13 14 17
35 35 42 46 48 46 45 47 48 49 53 55 57 58 54 54 53 49 46 39 33 33 38 44 44 37 35 37 37 36 35 35 37 36 35 34 36 38 36 32 31 29 27 31 36 35 34 30 22 19 21 23 28 30 29 28 27 29 31 27 26 23 17 15 19 20 13 5 3 4 8 23 27 19 13 11 13 15 18 22 20 13 12 13 12 11 12 14
42 40 37 34 38 43 45 49 51 54 57 57 58 59 54 49 48 47 47 45 39 35 35 37 40 41 40 36 36 37 36 36 37 38 38 38 39 39 37 34 32 30 26 27 34 36 36 36 30 23 25 31 33 30 27 28 28 30 32 31 30 28 24 15 12 23 28 19 11 5 10 30 31 16 12 14 15 16 16 20 18 13 12 12 11 12 12 13
44 46 43 33 32 36 41 48 51 54 59 58 56 58 56 51 48 45 45 47 44 39 37 37 37 39 41 40 38 36 35 36 38 39 40 42 42 41 38 36 32 30 30 29 32 35 36 37 35 33 33 31 28 26 26 27 30 32 32 32 30 30 33 27 14 16 25 29 28 14 11 33 37 24 20 21 17 16 18 21 18 14 16 16 14 15 14 15
44 48 48 41 36 35 38 46 52 55 58 57 55 55 56 54 50 44 41 43 46 45 42 41 40 37 38 40 40 37 34 35 36 40 42 41 42 42 39 37 36 32 31 31 32 33 35 35 32 30 29 27 26 28 29 28 29 32 35 35 34 36 40 37 30 22 19 25 28 12 10 32 33 19 16 17 17 17 20 23 20 19 23 20 16 18 17 17
45 46 44 41 40 40 39 44 54 60 59 56 56 57 56 55 53 50 45 42 43 45 46 45 43 40 38 36 36 36 35 33 33 37 39 39 41 40 37 38 40 38 36 35 34 33 34 36 30 17 10 14 17 20 25 30 32 34 37 37 38 41 39 37 38 30 24 33 31 14 15 37 34 22 18 17 18 20 20 21 22 25 27 21 18 21 21 19
43 43 42 42 42 42 40 40 46 57 63 61 59 59 58 56 56 55 51 45 41 42 45 46 44 41 40 37 36 36 35 35 34 32 33 36 38 37 36 36 39 41 41 38 35 33 36 41 37 22 11 11 14 16 22 29 32 36 40 40 41 42 41 41 39 32 29 36 32 25 32 46 39 27 23 22 23 24 23 22 25 29 28 23 22 23 23 21
42 41 42 44 43 40 40 41 40 46 56 59 59 59 58 57 57 57 53 49 46 43 43 45 45 44 41 38 38 38 38 40 38 34 31 32 33 34 34 36 39 41 40 38 36 35 36 37 37 34 31 32 36 37 33 28 28 34 38 38 40 42 44 44 39 39 38 28 26 40 49 50 48 39 33 34 34 32 31 29 30 31 27 25 26 27 25 23
43 44 45 46 43 40 42 44 42 42 46 49 53 56 59 59 56 53 52 53 52 49 47 47 47 48 46 43 42 43 43 42 40 41 40 35 33 32 31 34 39 39 38 39 39 38 37 34 33 36 39 43 48 47 42 38 38 40 37 35 36 38 42 47 45 48 45 26 28 50 48 44 54 51 42 45 42 38 38 36 34 33 27 26 29 30 27 26
44 46 47 46 43 44 47 47 44 42 42 45 48 49 53 59 57 51 51 54 53 49 47 47 48 50 50 49 46 45 44 42 41 47 49 45 40 37 34 33 35 36 36 38 39 38 38 37 36 38 40 44 48 46 44 45 46 44 40 38 38 36 40 49 51 51 47 36 41 55 47 46 58 53 45 47 43 40 42 38 34 31 28 30 31 31 29 29
46 46 47 46 46 47 49 49 45 40 38 41 47 49 49 53 56 55 53 51 47 46 45 46 50 53 52 50 47 45 44 41 42 48 51 50 47 45 41 38 35 34 35 38 39 37 38 40 38 39 41 43 47 47 46 46 45 45 44 42 42 42 44 47 47 46 46 47 53 58 51 55 61 53 49 49 45 45 45 38 34 31 31 34 34 32 31 32
48 46 45 46 48 48 48 50 49 46 42 39 41 46 49 50 50 52 54 51 47 47 49 49 52 53 50 48 48 49 49 47 46 47 46 47 48 47 46 43 41 38 35 38 41 38 39 41 38 36 37 41 48 49 45 45 45 45 46 46 49 49 45 44 44 44 46 51 56 56 55 61 63 56 52 50 49 50 46 42 40 37 36 37 35 32 33 34
49 48 45 44 49 51 49 49 50 50 51 48 42 40 43 47 48 47 49 52 52 50 50 48 49 49 48 47 49 50 51 50 49 48 45 45 46 46 45 46 47 45 41 40 41 42 43 41 38 34 31 38 50 47 42 45 45 43 49 56 57 52 43 42 46 46 48 51 52 52 56 61 62 55 51 51 51 50 47 46 44 41 41 40 36 33 34 36
49 50 47 41 45 52 52 51 51 51 53 55 51 45 40 39 42 45 44 45 46 47 46 44 43 44 46 47 48 48 47 47 48 48 47 47 46 45 43 43 44 44 43 41 39 42 44 41 39 35 29 36 48 42 37 37 29 31 50 61 61 56 50 50 53 51 51 52 50 53 58 59 58 56 55 54 53 51 49 47 43 42 41 39 36 35 35 37
Wind_Direction
200 200 202 202 201 200 199 198 196 192 190 189 187 187 185 185 185 186 187 189 190 193 198 205 211 214 212 212 214 221 226 225 233 236 234 237 238 240 243 247 248 253 255 263 273 283 298 297 290 282 275 263 231 207 196 196 193 181 179 170 166 193 201 212 215 231 248 251 246 240 249 258 265 267 255 246 250 254 255 255 259 268 275 280 286 288 290 293
198 197 197 197 196 196 195 194 193 191 189 189 188 188 188 188 189 190 192 195 198 202 209 215 219 218 211 212 216 229 234 228 238 247 244 242 241 240 241 248 253 258 257 262 277 285 293 290 286 279 272 264 241 214 203 190 178 180 185 178 166 195 203 210 225 239 253 262 257 249 256 263 264 263 256 249 251 257 262 262 260 266 276 277 282 286 287 289
197 195 194 194 195 195 194 194 193 192 191 191 191 192 193 193 194 196 199 202 207 212 218 221 221 217 212 216 223 235 237 227 230 246 251 248 243 243 246 253 255 257 257 261 273 283 282 277 280 274 268 261 245 216 196 190 185 187 192 187 179 191 197 207 235 252 267 276 271 268 271 265 264 259 247 250 257 264 267 268 274 283 287 286 293 296 294 291
198 196 196 197 198 198 197 196 197 196 195 195 195 197 199 200 202 203 207 211 217 222 224 223 221 220 220 223 226 234 240 235 233 240 247 250 250 250 252 252 252 253 253 261 270 275 275 275 277 268 256 249 241 203 178 188 191 196 195 189 192 199 199 213 239 255 266 273 267 268 276 265 265 267 260 261 266 273 279 283 290 295 293 294 301 302 299 296
200 199 199 200 202 201 201 200 201 200 199 200 201 202 204 207 209 212 217 222 228 230 227 223 223 227 229 229 229 236 244 245 241 238 239 241 245 248 249 249 248 250 251 260 265 265 272 271 262 256 243 233 228 180 179 192 191 202 200 193 205 215 214 226 246 255 260 265 262 262 271 270 271 275 274 272 272 279 286 289 290 293 294 297 301 302 301 299
204 204 204 204 205 204 205 204 204 204 205 206 206 208 210 213 217 221 227 232 235 233 228 226 229 233 235 233 232 237 238 230 227 228 228 231 238 243 247 251 248 250 253 257 258 261 265 253 241 242 235 232 222 172 180 196 196 210 213 209 222 231 235 240 245 251 254 260 264 266 269 271 274 274 272 272 275 282 286 287 286 288 293 297 298 299 298 297
211 211 210 211 211 210 210 209 209 209 210 211 213 214 217 220 224 230 235 239 238 232 229 230 233 236 238 237 235 239 235 226 231 235 234 240 250 250 251 256 257 258 257 255 255 254 249 242 234 224 219 227 228 194 186 202 213 225 228 219 229 245 248 247 249 253 258 262 266 269 271 273 272 271 271 272 277 282 284 285 287 289 292 294 294 293 292 291
219 219 218 218 219 218 217 216 215 216 216 217 219 222 225 229 233 238 241 241 237 232 231 234 236 238 239 240 238 244 245 236 241 249 252 259 263 262 262 261 262 262 259 255 253 249 247 246 232 222 224 233 243 224 200 217 231 237 242 232 233 251 251 250 256 261 262 266 268 269 272 273 272 271 272 274 279 282 281 282 285 289 291 290 289 288 286 285
225 224 225 224 224 225 225 225 224 224 225 226 227 230 233 236 240 244 244 240 235 232 234 237 239 240 242 243 242 249 255 249 249 254 259 264 266 266 265 264 262 261 258 255 254 251 245 243 233 228 229 232 242 235 215 229 242 242 251 253 248 255 257 254 258 265 267 269 271 272 272 272 273 272 272 274 280 280 276 276 279 283 284 284 283 283 282 280
231 229 228 228 228 229 229 230 231 231 232 234 235 238 240 242 245 247 244 239 234 234 236 240 241 243 245 247 248 254 257 255 256 258 264 267 268 268 265 263 262 259 256 255 257 253 243 239 237 237 235 235 241 241 233 239 247 247 251 255 256 260 262 261 260 266 268 269 273 275 274 274 273 273 275 280 282 279 275 274 274 276 277 277 277 277 277 277
235 233 232 231 230 230 231 232 233 234 236 238 240 242 244 246 247 247 243 238 236 236 238 241 244 246 249 250 251 255 256 256 259 262 267 271 271 269 266 264 262 260 256 253 254 252 248 245 243 243 246 245 244 247 248 249 251 254 257 259 262 267 268 269 270 271 271 271 273 275 274 273 273 274 279 284 280 276 274 271 271 271 272 273 274 273 272 271
236 236 236 235 234 232 232 233 235 236 238 240 242 243 245 246 246 245 241 238 238 239 240 242 245 248 250 251 252 254 254 255 259 263 268 271 273 272 269 266 264 263 259 253 252 251 250 250 248 247 248 250 250 253 255 254 254 256 262 263 262 267 271 275 277 275 274 275 276 278 276 273 275 280 284 284 279 275 273 271 272 273 274 275 275 273 269 266
237 238 238 238 239 238 236 236 237 239 241 243 244 245 246 245 244 243 241 240 240 241 242 244 246 249 251 252 251 252 254 256 259 264 267 269 271 271 271 270 268 266 261 256 253 252 250 250 250 247 247 252 255 255 256 256 256 259 267 269 270 272 274 278 280 277 276 276 276 276 276 276 281 286 285 280 276 274 274 276 277 278 279 279 277 274 271 268
238 238 239 240 241 241 241 241 241 243 244 245 246 247 247 245 244 243 242 243 243 243 244 245 246 249 251 252 251 252 254 256 258 264 268 268 268 269 271 272 270 267 264 259 254 252 250 248 248 247 247 252 256 258 261 261 260 266 273 276 279 281 282 284 283 281 278 275 276 275 275 281 288 286 283 278 275 274 275 277 280 282 282 281 279 276 274 272
240 240 240 241 242 243 243 244 246 247 247 248 249 249 249 247 245 244 244 244 244 245 246 246 247 249 251 252 252 252 253 254 258 263 265 265 266 268 270 270 270 270 267 261 256 253 251 250 250 249 249 251 254 257 260 263 265 269 274 279 283 287 292 293 287 285 282 277 277 274 275 285 292 289 286 282 280 280 280 281 282 283 283 282 282 280 278 277
241 241 242 242 243 243 244 245 247 249 251 252 251 251 250 249 248 246 245 245 245 246 246 247 248 249 252 252 251 251 252 255 258 260 263 265 267 269 270 270 271 270 267 263 259 255 254 254 253 252 251 251 253 255 258 262 264 267 273 277 284 292 296 293 289 287 281 275 274 273 274 284 292 291 289 288 287 286 283 283 283 283 282 281 281 280 280 279
241 242 243 244 243 243 244 245 247 250 253 254 253 253 252 251 250 249 247 246 246 247 248 249 249 251 253 251 250 252 255 256 257 259 261 263 265 267 267 269 270 269 266 264 261 259 257 255 255 256 254 252 253 254 255 257 260 266 272 275 281 288 287 285 287 287 281 275 275 276 277 283 290 290 289 289 288 285 284 283 282 281 280 279 278 278 279 278
242 242 243 245 245 244 244 245 247 250 252 254 255 254 254 253 252 251 249 248 247 247 247 248 249 252 254 252 253 254 254 255 255 257 259 261 264 265 266 268 268 267 266 264 262 259 258 256 255 255 253 251 251 253 252 256 267 275 274 273 278 278 277 278 277 277 276 275 274 274 278 285 290 289 289 289 288 286 286 283 281 279 278 278 278 279 278 277
244 244 244 245 246 246 245 246 247 249 252 253 254 254 254 254 252 251 250 248 247 247 249 251 251 253 255 256 257 255 254 255 254 255 258 260 262 265 267 267 266 266 266 265 265 261 258 257 253 252 252 253 255 259 263 267 274 276 267 264 271 272 267 260 257 261 269 275 276 274 279 286 288 287 289 290 290 289 286 284 283 283 282 282 281 281 279 277
246 245 245 246 246 246 247 247 249 250 252 253 253 253 253 253 252 251 251 250 250 250 253 254 253 254 256 256 256 256 256 256 255 255 256 256 260 265 267 267 267 268 269 269 266 262 259 257 254 254 257 260 262 266 271 272 270 270 263 259 262 262 261 258 256 261 271 278 280 280 281 284 285 286 288 289 288 286 285 285 286 287 287 286 284 282 279 275
248 246 246 246 247 247 247 248 250 251 253 254 253 252 252 252 253 253 253 253 253 251 251 253 255 254 254 255 255 256 256 256 256 256 256 258 262 263 263 265 268 271 275 270 263 260 259 257 258 261 265 265 265 266 269 269 268 269 269 267 263 261 264 266 266 269 275 278 280 282 281 280 282 284 284 284 283 283 285 286 287 288 287 285 283 280 277 274
250 249 247 247 247 247 248 249 250 251 252 253 253 252 253 252 252 254 255 255 253 251 251 252 253 254 254 255 255 255 255 255 256 257 259 260 260 261 264 266 269 272 271 266 263 263 261 262 265 268 266 263 261 262 265 266 265 265 267 268 266 266 271 274 277 280 281 279 281 282 279 279 281 281 280 281 282 284 285 285 285 284 283 283 283 280 277 275
249 250 249 248 247 247 247 248 249 250 250 251 253 253 253 253 253 254 256 258 256 252 250 250 252 255 255 255 255 255 256 256 257 258 258 258 258 261 264 265 269 269 264 263 264 263 262 266 271 268 261 259 259 258 258 255 253 255 257 259 264 271 277 280 285 289 286 280 279 281 280 281 282 281 281 283 283 284 284 283 281 280 281 283 282 280 278 274
247 249 251 249 249 248 247 247 248 248 249 250 251 253 254 254 255 255 256 260 259 253 250 251 252 253 253 254 254 254 256 256 255 255 255 256 257 259 262 265 267 263 261 263 266 264 263 265 266 265 262 258 258 259 255 249 246 250 253 255 264 273 277 281 287 287 282 276 276 281 284 284 286 286 286 286 283 283 284 283 282 281 282 283 281 281 280 276
246 247 249 250 251 250 248 247 246 247 248 249 250 252 254 255 256 257 258 263 264 257 251 250 250 250 251 251 251 250 252 252 250 250 252 254 255 257 260 262 261 260 262 263 265 266 266 266 264 264 262 259 259 261 260 256 255 256 257 259 266 273 274 279 282 277 276 276 277 281 285 286 288 287 286 286 284 285 287 286 286 285 283 283 283 282 279 277
247 247 247 249 250 251 250 248 247 248 248 249 251 251 252 253 255 256 257 265 267 260 254 251 249 249 249 246 247 247 249 251 249 248 249 250 251 253 255 256 257 259 261 263 265 266 266 265 262 260 259 259 259 260 261 261 260 259 262 267 270 272 272 274 271 266 267 273 277 275 271 285 288 286 284 286 287 287 287 287 288 289 288 285 283 278 273 272
247 248 248 248 248 250 250 250 249 250 250 250 250 249 250 250 251 252 251 266 269 261 256 252 248 247 247 246 246 243 243 249 248 246 246 246 247 248 250 252 255 256 257 257 255 259 264 263 259 258 258 257 255 257 262 261 258 259 267 274 274 273 274 271 265 258 259 266 269 268 270 279 283 284 287 289 290 291 290 292 296 295 291 285 279 274 269 267
246 246 246 246 247 248 249 251 250 248 249 250 247 246 246 245 244 243 235 230 265 259 256 250 246 247 246 246 246 239 241 249 248 244 245 244 244 246 248 251 255 257 258 253 251 257 265 264 262 262 260 258 257 260 265 263 258 261 269 274 272 273 272 267 263 257 260 268 266 263 267 270 274 279 286 290 289 291 293 297 303 301 292 279 271 269 267 265
247 247 246 245 244 245 246 247 247 246 246 245 245 242 239 238 232 223 203 214 249 252 251 246 243 244 243 241 240 238 239 244 244 244 245 243 243 243 246 250 253 255 254 251 254 258 261 260 261 262 259 258 260 261 262 260 259 261 266 268 268 269 266 261 260 259 264 267 259 260 260 255 275 280 281 285 286 290 297 302 307 305 295 279 268 263 261 260
244 247 250 248 243 242 243 244 245 246 245 244 244 239 233 228 214 193 159 230 240 247 245 239 239 240 241 236 233 233 235 238 241 241 240 239 239 240 242 245 246 248 248 248 251 252 253 254 254 254 255 256 256 255 256 257 257 259 260 261 262 262 259 257 259 262 269 266 258 262 260 247 269 285 280 281 286 291 299 304 307 305 296 286 277 268 262 259
241 244 248 249 246 243 243 244 245 245 246 244 240 234 224 215 202 181 201 237 241 249 243 234 236 238 241 239 233 232 233 235 237 236 235 235 235 235 235 235 235 238 242 241 244 247 248 248 248 248 251 252 251 251 254 255 253 253 252 251 253 257 261 261 258 254 251 263 264 270 265 242 236 263 273 278 285 291 299 304 307 304 294 287 281 273 267 262
239 242 246 248 249 247 244 244 245 245 245 240 235 227 211 200 194 195 223 236 245 255 243 235 237 237 239 241 240 240 236 235 236 233 235 235 235 238 238 238 235 230 233 237 238 243 247 247 246 247 249 250 250 249 249 249 247 246 242 236 233 241 290 265 238 233 230 249 265 269 248 231 240 259 270 274 280 289 297 301 302 301 295 288 282 276 270 266
237 239 245 248 250 250 248 247 244 242 241 235 227 214 199 189 198 212 222 228 231 250 244 237 240 237 235 234 232 234 233 234 236 234 234 235 237 240 241 243 240 234 238 243 238 236 244 249 246 245 249 250 249 245 243 244 242 240 237 228 216 189 38 262 227 253 254 256 259 245 228 238 252 268 275 276 282 289 290 294 296 294 291 287 283 278 272 269
239 237 241 247 249 251 252 250 245 241 238 231 215 197 191 196 214 218 224 228 226 235 250 231 227 226 226 228 229 228 227 229 231 230 230 230 231 234 234 236 237 237 240 244 239 232 234 247 248 247 250 252 253 251 252 253 248 245 245 238 228 219 217 233 210 204 259 289 254 214 210 236 251 269 280 283 287 287 285 289 288 285 284 282 280 277 274 271
242 238 238 244 248 249 250 247 242 238 235 227 206 189 190 205 216 218 226 229 223 223 233 219 201 212 214 219 225 224 223 227 227 224 226 229 230 233 234 234 234 234 233 233 235 233 231 244 251 249 249 248 247 248 247 245 243 244 241 232 233 237 237 242 250 254 280 315 262 204 223 249 258 269 275 277 280 281 285 287 284 280 278 276 276 275 275 272
241 238 237 241 245 247 247 242 238 235 232 221 198 190 199 215 224 224 228 231 225 220 224 224 214 213 209 209 216 218 218 222 224 221 223 228 231 233 234 235 235 233 234 231 229 225 224 239 247 243 241 236 221 226 232 231 231 226 221 227 238 243 238 238 259 277 285 294 263 228 245 259 267 275 274 270 275 279 285 290 287 280 276 275 278 277 274 271
239 238 236 238 242 244 243 237 231 230 228 213 196 199 214 226 231 231 230 234 232 224 223 226 227 222 214 208 210 212 212 216 219 220 222 224 229 233 232 234 235 235 240 238 232 232 232 240 245 240 239 236 229 230 229 226 223 214 219 236 240 237 232 229 249 302 279 272 267 241 252 263 265 271 275 272 275 283 290 294 288 280 279 279 279 278 274 269
239 238 236 237 239 240 237 231 227 226 219 206 201 208 223 232 234 232 229 230 229 222 220 224 229 227 222 216 213 211 209 211 215 217 221 223 231 237 234 234 236 236 241 239 230 233 237 240 246 240 232 226 224 225 220 219 221 222 233 239 224 217 217 208 213 265 218 233 288 259 257 264 257 258 270 277 279 286 291 288 283 281 282 282 278 276 274 271
238 237 238 239 237 235 234 232 230 223 211 203 206 213 223 231 233 228 223 222 220 217 220 225 227 224 223 224 221 215 210 213 215 215 218 223 233 243 240 239 241 239 241 239 233 230 231 235 243 236 228 220 219 221 217 218 220 221 227 228 221 219 212 206 211 222 197 197 276 273 259 263 264 267 273 278 281 285 287 287 285 281 276 277 278 278 278 276
230 229 233 237 236 231 231 232 229 218 207 204 210 218 224 229 231 229 224 221 217 216 222 227 223 219 223 225 224 220 216 217 222 222 223 226 235 244 246 244 245 245 244 242 239 232 225 229 237 230 221 218 221 226 231 237 236 228 224 221 220 218 213 221 228 227 225 220 240 263 267 265 273 284 279 277 284 282 287 292 286 274 271 275 273 272 280 282
234 234 229 229 233 231 228 226 220 210 207 208 213 220 225 227 230 232 228 221 215 212 220 227 223 222 224 223 222 224 221 221 226 228 230 232 236 242 246 247 247 249 243 232 232 230 222 224 232 228 221 223 230 239 245 248 249 246 243 240 237 232 222 223 238 230 227 229 228 221 277 273 274 275 265 277 285 277 286 294 282 265 270 276 266 262 276 284
237 240 237 233 232 228 227 224 218 210 207 211 217 221 223 226 228 230 227 220 214 212 217 224 226 227 227 225 225 224 222 224 227 230 233 236 239 242 246 250 251 250 244 236 237 236 226 224 228 230 234 240 246 248 245 243 244 244 246 246 247 245 232 222 224 228 221 229 240 240 272 275 275 273 268 273 273 267 280 287 274 261 272 278 263 255 271 284
236 238 241 243 235 225 227 226 219 214 211 214 220 223 224 227 227 228 228 220 217 217 217 219 224 226 226 227 228 226 225 227 229 233 236 239 243 245 245 249 251 248 243 238 236 229 219 219 223 228 240 248 248 247 244 242 238 234 237 240 239 241 239 232 232 237 232 233 234 223 254 265 270 278 272 266 262 261 275 279 270 268 280 281 260 254 272 280
240 239 240 242 235 227 231 230 221 217 216 216 218 219 224 228 227 228 230 224 219 220 219 219 221 223 224 223 223 224 225 227 231 236 240 242 246 248 245 245 247 245 241 238 234 225 217 216 214 212 236 250 248 246 240 234 233 235 240 242 238 239 240 236 233 235 247 248 233 206 248 259 263 273 268 263 266 266 272 274 271 277 285 278 254 259 276 273
240 241 237 236 234 230 234 237 228 220 218 217 216 216 220 225 227 229 230 228 225 224 222 223 221 220 223 222 220 222 224 228 233 236 238 241 246 248 245 243 246 245 244 243 239 235 230 221 213 204 202 225 234 234 234 234 234 237 242 243 241 240 236 232 231 228 239 249 235 221 244 256 259 262 261 263 268 270 271 269 271 280 282 269 256 266 274 263
237 238 235 233 235 235 235 237 233 226 221 218 218 219 220 223 228 231 230 230 230 228 227 228 224 220 221 223 223 224 224 229 234 236 236 236 240 243 241 240 243 243 243 240 233 234 234 225 219 221 224 231 241 245 250 254 247 245 250 248 244 243 239 232 228 228 233 239 239 241 247 256 259 256 257 264 267 270 272 274 277 279 270 260 266 278 275 256
234 236 234 232 233 231 227 227 228 231 232 225 222 224 225 228 231 230 230 232 233 230 228 229 227 223 222 224 225 226 227 229 232 237 239 236 233 234 233 231 231 232 236 234 227 227 231 226 224 232 236 242 250 255 258 260 259 257 259 254 246 245 240 231 227 235 237 230 248 255 252 255 261 260 262 268 270 270 274 278 282 278 262 254 266 279 273 252
232 237 236 233 234 230 223 221 222 227 234 234 231 231 230 230 229 227 229 233 232 229 226 224 226 229 230 229 228 229 230 230 232 237 239 238 235 233 234 232 225 220 223 227 224 222 228 229 229 236 244 249 255 259 258 256 258 259 258 257 255 248 240 234 234 242 240 231 250 262 259 259 266 268 269 273 275 275 277 280 279 270 256 252 262 269 263 248
228 236 238 235 236 237 232 228 227 227 231 233 234 235 233 232 232 231 232 232 227 224 223 224 230 235 235 233 231 231 233 232 234 238 240 240 239 238 237 236 233 226 223 226 225 222 229 236 236 238 244 251 256 260 257 252 252 254 254 257 257 252 247 243 244 250 247 244 256 265 263 265 269 269 269 274 277 276 276 276 271 261 253 256 264 265 255 244
224 230 238 238 237 238 237 234 234 235 237 236 234 234 233 233 234 233 232 230 228 227 226 229 236 238 237 235 232 234 241 242 243 246 246 242 241 242 240 238 241 241 234 228 227 225 228 234 236 236 238 246 253 255 251 245 245 249 252 255 256 254 250 244 246 252 249 248 257 261 260 264 268 268 270 273 272 271 271 272 271 267 261 263 267 262 251 243
224 226 232 238 240 239 238 237 236 237 240 240 239 237 233 234 236 235 233 233 233 232 232 237 243 241 237 236 235 241 250 251 248 249 249 245 245 247 247 245 247 249 244 235 229 227 227 228 231 232 232 243 251 251 247 246 247 248 250 253 252 250 246 244 247 251 248 248 253 253 253 262 268 270 272 272 270 270 272 273 273 272 268 267 265 258 249 246
226 226 226 232 238 239 239 239 238 238 239 239 241 241 238 239 241 236 233 235 237 237 239 244 248 244 239 239 241 248 255 253 248 249 249 248 249 249 249 249 249 250 249 244 236 230 229 229 232 233 233 243 250 252 250 249 248 246 250 253 253 249 248 250 251 252 251 250 250 250 256 268 273 271 271 273 274 275 276 276 277 276 274 271 264 256 250 249
Height
3151 3152 3153 3154 3156 3157 3158 3159 3160 3160 3161 3162 3163 3164 3166 3167 3168 3169 3170 3171 3173 3174 3175 3175 3176 3177 3178 3178 3179 3179 3179 3180 3180 3180 3181 3181 3181 3182 3182 3182 3183 3183 3183 3184 3184 3184 3185 3185 3185 3185 3186 3186 3186 3187 3187 3188 3188 3189 3189 3190 3190 3190 3191 3191 3192 3192 3192 3193 3193 3194 3194 3195 3195 3196 3196 3196 3196 3197 3197 3198 3198 3199 3199 3199 3199 3199 3199 3200
3150 3151 3153 3154 3155 3156 3157 3158 3159 3160 3161 3162 3163 3164 3165 3166 3168 3169 3170 3171 3172 3173 3174 3175 3176 3176 3177 3178 3178 3179 3179 3179 3179 3179 3180 3180 3181 3181 3182 3182 3182 3182 3183 3183 3183 3184 3184 3185 3185 3185 3185 3186 3186 3186 3187 3187 3188 3188 3188 3189 3189 3190 3190 3191 3191 3192 3192 3193 3193 3194 3193 3194 3194 3195 3196 3195 3195 3195 3196 3197 3198 3198 3198 3198 3198 3198 3198 3199
3150 3151 3152 3153 3155 3156 3157 3158 3159 3160 3161 3162 3163 3164 3165 3166 3167 3168 3170 3171 3172 3173 3174 3174 3175 3176 3177 3177 3178 3178 3178 3179 3179 3179 3179 3180 3180 3180 3181 3181 3182 3182 3182 3183 3183 3183 3184 3184 3184 3185 3185 3185 3185 3186 3186 3187 3187 3187 3188 3188 3189 3189 3190 3191 3191 3191 3192 3192 3193 3193 3193 3193 3193 3194 3195 3195 3194 3194 3195 3196 3197 3197 3197 3197 3197 3197 3198 3198
3150 3151 3152 3153 3154 3155 3157 3158 3159 3160 3161 3161 3163 3164 3165 3166 3167 3168 3169 3170 3171 3172 3173 3174 3174 3175 3176 3176 3177 3177 3177 3178 3178 3178 3179 3179 3179 3180 3180 3181 3181 3181 3182 3182 3182 3183 3183 3184 3184 3184 3184 3184 3184 3185 3186 3186 3187 3187 3187 3188 3189 3189 3191 3191 3191 3191 3191 3192 3192 3193 3193 3193 3193 3193 3194 3194 3193 3193 3194 3195 3195 3195 3195 3195 3196 3196 3196 3196
3150 3151 3152 3153 3154 3155 3156 3157 3158 3159 3160 3161 3162 3163 3164 3165 3167 3168 3169 3170 3171 3172 3172 3173 3173 3174 3175 3175 3176 3176 3176 3177 3177 3177 3178 3178 3179 3179 3180 3180 3180 3181 3181 3181 3182 3182 3183 3183 3183 3183 3183 3183 3183 3184 3185 3186 3186 3187 3187 3188 3188 3189 3190 3191 3191 3191 3191 3191 3192 3192 3192 3192 3192 3193 3193 3193 3193 3192 3193 3193 3194 3194 3194 3194 3194 3195 3195 3195
3149 3150 3151 3152 3153 3154 3155 3157 3158 3159 3159 3161 3162 3163 3164 3165 3166 3167 3168 3169 3170 3171 3171 3172 3173 3173 3174 3175 3175 3175 3176 3176 3176 3177 3177 3178 3178 3178 3179 3179 3180 3180 3180 3181 3181 3182 3182 3182 3182 3182 3182 3182 3183 3184 3185 3185 3186 3186 3187 3188 3188 3188 3189 3190 3191 3191 3191 3191 3191 3192 3191 3191 3192 3192 3192 3192 3192 3192 3192 3192 3192 3192 3193 3193 3193 3194 3194 3194
3148 3149 3150 3151 3153 3154 3155 3156 3157 3158 3159 3160 3161 3162 3163 3164 3165 3166 3167 3168 3169 3170 3170 3171 3172 3172 3173 3174 3174 3174 3175 3175 3175 3176 3176 3177 3177 3178 3178 3178 3179 3179 3180 3180 3180 3181 3181 3181 3182 3182 3182 3181 3182 3184 3184 3185 3185 3185 3186 3187 3187 3187 3188 3189 3189 3190 3190 3190 3190 3191 3190 3190 3190 3190 3190 3190 3191 3191 3191 3190 3190 3191 3191 3192 3192 3192 3192 3192
3146 3148 3149 3150 3151 3152 3154 3154 3155 3157 3157 3158 3160 3161 3161 3162 3163 3164 3165 3167 3167 3168 3169 3170 3171 3171 3172 3173 3173 3174 3174 3175 3175 3175 3175 3176 3176 3177 3177 3178 3178 3178 3179 3180 3180 3180 3180 3181 3181 3181 3181 3182 3182 3183 3184 3184 3184 3184 3185 3186 3187 3187 3187 3188 3188 3189 3189 3189 3189 3189 3189 3189 3189 3189 3189 3189 3190 3190 3190 3189 3189 3189 3190 3190 3190 3190 3190 3191
3145 3146 3147 3148 3150 3151 3152 3153 3154 3155 3156 3157 3158 3159 3160 3161 3162 3163 3164 3165 3166 3167 3168 3168 3169 3170 3171 3171 3172 3173 3173 3173 3174 3174 3174 3175 3175 3176 3176 3177 3177 3178 3178 3179 3179 3180 3180 3180 3181 3181 3181 3181 3182 3183 3183 3183 3184 3184 3184 3185 3186 3186 3186 3187 3187 3187 3187 3188 3188 3188 3188 3188 3187 3187 3187 3188 3189 3189 3189 3188 3188 3188 3188 3188 3188 3188 3188 3189
3144 3145 3146 3147 3148 3149 3150 3152 3153 3154 3155 3156 3157 3158 3158 3159 3161 3162 3163 3164 3164 3165 3166 3167 3168 3168 3169 3170 3171 3172 3172 3172 3172 3173 3173 3174 3174 3175 3175 3176 3176 3177 3177 3178 3178 3179 3179 3180 3180 3180 3181 3181 3181 3182 3182 3183 3183 3183 3184 3184 3184 3185 3184 3185 3186 3186 3186 3186 3186 3186 3186 3186 3185 3185 3185 3187 3187 3187 3187 3187 3187 3187 3186 3186 3187 3187 3187 3187
3142 3143 3144 3145 3147 3148 3149 3150 3151 3152 3153 3154 3155 3156 3157 3158 3159 3160 3161 3162 3163 3163 3164 3165 3166 3167 3168 3169 3170 3170 3170 3171 3171 3172 3172 3173 3173 3174 3174 3175 3175 3176 3176 3177 3177 3178 3178 3179 3179 3179 3180 3180 3181 3181 3182 3182 3182 3182 3183 3183 3183 3183 3183 3184 3184 3185 3184 3185 3185 3185 3184 3183 3183 3183 3184 3185 3185 3184 3184 3184 3184 3184 3184 3184 3185 3185 3185 3185
3140 3141 3143 3144 3145 3146 3147 3148 3149 3150 3151 3152 3153 3154 3155 3156 3157 3158 3159 3160 3161 3162 3162 3163 3164 3165 3166 3167 3168 3169 3169 3170 3170 3171 3171 3171 3172 3172 3173 3173 3174 3174 3175 3176 3176 3177 3177 3177 3178 3179 3179 3179 3180 3181 3181 3181 3181 3182 3181 3181 3182 3182 3182 3182 3183 3183 3183 3183 3183 3183 3181 3181 3181 3182 3182 3183 3182 3182 3182 3182 3182 3182 3182 3182 3182 3183 3183 3183
3138 3139 3141 3142 3143 3144 3145 3146 3148 3148 3150 3151 3151 3152 3153 3154 3155 3156 3157 3158 3159 3160 3161 3161 3162 3163 3164 3165 3166 3167 3167 3168 3169 3169 3170 3170 3171 3171 3172 3172 3173 3173 3174 3174 3175 3175 3176 3176 3177 3178 3178 3178 3179 3180 3180 3180 3180 3180 3180 3180 3180 3180 3180 3181 3181 3181 3181 3181 3181 3181 3179 3179 3180 3180 3180 3180 3180 3180 3180 3180 3180 3180 3180 3180 3180 3180 3181 3181
3135 3137 3138 3140 3141 3142 3144 3145 3146 3147 3148 3149 3150 3151 3151 3152 3153 3154 3155 3156 3157 3158 3159 3159 3160 3161 3162 3163 3164 3165 3166 3167 3168 3168 3169 3169 3169 3170 3170 3171 3171 3172 3172 3173 3173 3174 3174 3175 3175 3176 3177 3177 3178 3178 3179 3179 3179 3179 3178 3178 3179 3178 3178 3179 3179 3179 3179 3179 3179 3179 3177 3176 3178 3178 3178 3178 3178 3178 3178 3178 3178 3178 3178 3178 3178 3178 3178 3178
3132 3134 3136 3137 3139 3140 3142 3143 3144 3145 3146 3147 3148 3149 3150 3151 3151 3152 3153 3154 3155 3156 3157 3157 3158 3159 3160 3161 3162 3163 3164 3165 3166 3167 3167 3167 3168 3169 3169 3169 3170 3170 3171 3171 3172 3172 3172 3173 3174 3174 3175 3176 3177 3177 3177 3177 3177 3178 3177 3177 3177 3177 3176 3176 3176 3176 3177 3177 3177 3177 3175 3175 3176 3176 3176 3176 3176 3176 3176 3176 3176 3176 3176 3175 3175 3175 3175 3176
3129 3131 3133 3134 3136 3138 3139 3141 3142 3143 3144 3145 3146 3147 3148 3149 3149 3150 3151 3152 3153 3154 3154 3155 3156 3157 3157 3159 3160 3161 3162 3164 3165 3165 3165 3165 3166 3167 3167 3167 3168 3169 3169 3169 3170 3170 3171 3172 3172 3173 3174 3174 3175 3175 3175 3176 3176 3176 3176 3176 3176 3175 3175 3174 3174 3174 3175 3175 3175 3175 3174 3173 3174 3175 3174 3174 3174 3174 3174 3174 3174 3174 3173 3173 3173 3173 3173 3173
3125 3128 3129 3131 3133 3135 3136 3138 3139 3141 3142 3143 3144 3145 3146 3147 3148 3148 3149 3150 3151 3151 3152 3152 3153 3154 3155 3156 3157 3159 3161 3162 3162 3162 3163 3164 3164 3165 3165 3166 3166 3166 3167 3168 3168 3169 3169 3170 3170 3171 3172 3173 3173 3173 3174 3174 3175 3175 3175 3175 3174 3174 3174 3173 3173 3173 3173 3173 3173 3172 3171 3171 3173 3173 3172 3172 3172 3171 3171 3171 3171 3171 3171 3170 3170 3170 3170 3170
3122 3124 3126 3128 3130 3132 3133 3135 3137 3138 3139 3141 3142 3143 3144 3144 3145 3146 3146 3147 3148 3149 3149 3149 3151 3152 3152 3153 3156 3158 3159 3159 3160 3160 3161 3162 3163 3163 3163 3164 3164 3165 3165 3166 3166 3167 3167 3167 3168 3168 3169 3171 3171 3170 3171 3173 3174 3174 3174 3173 3173 3173 3172 3172 3172 3172 3172 3171 3171 3170 3168 3169 3170 3170 3170 3170 3169 3168 3168 3168 3168 3168 3168 3168 3167 3168 3168 3168
3118 3120 3122 3124 3126 3128 3130 3132 3134 3135 3136 3138 3139 3140 3141 3142 3142 3143 3143 3144 3145 3146 3147 3148 3149 3149 3149 3151 3154 3155 3156 3157 3157 3158 3159 3160 3160 3161 3161 3162 3162 3163 3163 3164 3165 3165 3165 3165 3165 3165 3167 3169 3169 3169 3170 3172 3172 3172 3172 3172 3171 3171 3171 3171 3171 3170 3170 3169 3168 3168 3166 3165 3167 3167 3167 3167 3166 3165 3165 3165 3164 3164 3164 3165 3165 3165 3165 3165
3115 3116 3118 3120 3122 3124 3127 3128 3130 3132 3133 3134 3136 3137 3138 3138 3139 3139 3140 3141 3142 3144 3145 3145 3146 3146 3146 3148 3150 3152 3153 3154 3155 3156 3157 3157 3158 3159 3159 3160 3161 3161 3162 3163 3162 3162 3163 3162 3162 3163 3166 3167 3168 3168 3168 3170 3170 3170 3170 3170 3169 3169 3169 3169 3170 3169 3169 3167 3165 3165 3164 3162 3163 3164 3164 3164 3162 3161 3161 3161 3160 3161 3161 3161 3161 3161 3161 3161
3111 3113 3114 3116 3118 3120 3122 3125 3126 3128 3129 3130 3132 3134 3134 3135 3136 3136 3138 3138 3140 3142 3142 3142 3143 3143 3143 3145 3147 3149 3150 3151 3152 3153 3154 3155 3156 3157 3157 3158 3159 3160 3160 3160 3159 3160 3160 3158 3159 3163 3165 3166 3166 3166 3166 3167 3167 3168 3168 3167 3167 3167 3166 3167 3168 3167 3167 3164 3162 3163 3161 3159 3159 3160 3161 3160 3158 3157 3158 3158 3157 3157 3157 3157 3157 3157 3157 3157
3107 3109 3111 3112 3114 3116 3118 3120 3122 3124 3125 3127 3129 3130 3131 3133 3133 3134 3135 3135 3136 3138 3139 3139 3139 3138 3140 3142 3143 3145 3146 3147 3149 3150 3151 3153 3154 3154 3155 3156 3157 3158 3158 3157 3157 3158 3157 3155 3158 3162 3163 3163 3163 3163 3164 3164 3164 3165 3165 3165 3165 3165 3165 3165 3165 3165 3165 3162 3160 3160 3157 3155 3156 3157 3157 3156 3154 3154 3155 3154 3154 3153 3152 3152 3152 3152 3152 3152
3103 3105 3107 3108 3110 3112 3114 3116 3118 3119 3121 3123 3125 3127 3128 3129 3130 3132 3132 3131 3131 3133 3134 3135 3135 3135 3136 3138 3139 3141 3142 3144 3146 3147 3148 3149 3151 3152 3152 3153 3155 3156 3155 3154 3155 3155 3153 3154 3158 3160 3160 3160 3160 3161 3161 3162 3162 3162 3163 3163 3162 3163 3164 3163 3163 3163 3162 3160 3158 3157 3153 3149 3151 3152 3152 3153 3150 3150 3151 3150 3150 3149 3148 3148 3148 3148 3147 3147
3099 3101 3103 3105 3106 3107 3110 3112 3112 3114 3117 3119 3122 3124 3125 3127 3128 3129 3129 3128 3126 3127 3130 3131 3132 3131 3131 3133 3135 3137 3138 3140 3142 3143 3144 3145 3148 3149 3149 3151 3152 3152 3152 3152 3153 3151 3150 3154 3156 3157 3158 3158 3158 3158 3159 3159 3160 3160 3160 3160 3160 3161 3162 3161 3161 3160 3159 3158 3156 3156 3150 3142 3144 3146 3146 3148 3147 3146 3147 3146 3146 3145 3145 3145 3144 3144 3144 3143
3094 3097 3099 3101 3102 3103 3106 3106 3107 3110 3113 3116 3119 3121 3123 3123 3124 3125 3127 3125 3120 3120 3125 3126 3126 3125 3126 3129 3130 3132 3134 3134 3136 3138 3140 3142 3145 3146 3146 3148 3148 3147 3150 3151 3150 3147 3147 3151 3154 3154 3155 3156 3156 3156 3156 3157 3157 3158 3158 3158 3159 3160 3160 3160 3160 3158 3157 3155 3154 3156 3150 3137 3137 3142 3141 3143 3143 3143 3144 3142 3142 3142 3141 3141 3140 3140 3141 3140
3090 3092 3095 3097 3098 3100 3101 3101 3103 3108 3110 3113 3116 3118 3119 3119 3121 3123 3124 3123 3115 3111 3117 3120 3121 3120 3121 3122 3124 3129 3131 3127 3130 3134 3136 3139 3141 3143 3143 3143 3143 3145 3147 3149 3148 3143 3142 3147 3150 3150 3151 3153 3153 3153 3154 3155 3155 3155 3154 3156 3158 3158 3158 3158 3158 3157 3155 3153 3152 3154 3152 3138 3130 3134 3137 3139 3139 3139 3139 3138 3138 3138 3137 3136 3136 3136 3137 3137
3085 3088 3090 3092 3094 3096 3096 3097 3101 3105 3107 3111 3112 3114 3116 3116 3119 3120 3123 3124 3111 3103 3109 3114 3114 3113 3114 3117 3121 3127 3124 3119 3124 3130 3131 3135 3137 3139 3139 3138 3140 3142 3144 3147 3144 3138 3139 3143 3145 3147 3148 3149 3149 3150 3151 3153 3153 3152 3152 3154 3155 3155 3156 3155 3155 3155 3153 3152 3151 3150 3153 3143 3126 3124 3131 3134 3134 3134 3134 3134 3134 3134 3133 3132 3132 3133 3134 3135
3080 3082 3085 3087 3089 3091 3093 3094 3097 3101 3105 3107 3108 3111 3112 3113 3116 3117 3121 3122 3107 3097 3103 3106 3107 3109 3110 3114 3117 3120 3117 3115 3121 3125 3127 3131 3133 3135 3135 3135 3137 3138 3141 3143 3138 3136 3138 3140 3141 3144 3145 3144 3145 3148 3149 3151 3150 3149 3151 3152 3152 3153 3153 3153 3153 3153 3151 3150 3148 3146 3151 3145 3124 3119 3128 3129 3129 3130 3130 3131 3130 3129 3129 3128 3128 3129 3130 3131
3075 3077 3079 3082 3084 3086 3087 3088 3091 3097 3101 3102 3104 3107 3108 3111 3113 3115 3119 3116 3100 3094 3098 3100 3102 3104 3105 3109 3111 3113 3113 3113 3117 3120 3124 3128 3128 3130 3131 3132 3135 3135 3137 3137 3134 3135 3137 3137 3139 3140 3141 3140 3143 3146 3147 3148 3148 3147 3149 3149 3150 3151 3150 3151 3150 3150 3151 3146 3142 3143 3148 3144 3122 3113 3123 3126 3124 3126 3126 3128 3128 3126 3126 3124 3125 3125 3126 3127
3071 3072 3075 3077 3077 3079 3080 3082 3086 3093 3096 3098 3101 3103 3105 3107 3109 3112 3115 3106 3094 3092 3093 3095 3099 3100 3101 3104 3106 3108 3109 3110 3114 3118 3121 3122 3124 3126 3128 3130 3132 3131 3132 3133 3132 3133 3133 3134 3136 3136 3137 3138 3141 3143 3143 3145 3145 3145 3147 3147 3149 3149 3148 3150 3148 3148 3149 3140 3135 3139 3142 3143 3126 3110 3115 3120 3121 3123 3123 3124 3125 3124 3123 3122 3122 3123 3123 3124
3067 3068 3070 3071 3071 3073 3076 3077 3082 3088 3091 3094 3097 3098 3100 3103 3104 3107 3104 3097 3092 3089 3088 3091 3095 3096 3097 3099 3101 3104 3106 3108 3111 3114 3116 3118 3120 3121 3123 3125 3128 3128 3128 3128 3128 3129 3130 3131 3131 3132 3134 3135 3138 3140 3140 3142 3142 3142 3144 3145 3147 3147 3146 3147 3145 3147 3146 3133 3130 3134 3135 3138 3127 3109 3111 3116 3117 3120 3121 3121 3121 3121 3121 3120 3120 3120 3120 3121
3062 3064 3066 3066 3067 3068 3070 3074 3079 3083 3086 3089 3090 3091 3093 3096 3098 3097 3094 3094 3092 3084 3082 3087 3089 3091 3094 3096 3099 3101 3103 3105 3107 3109 3112 3114 3115 3116 3118 3119 3122 3124 3123 3122 3124 3125 3125 3126 3127 3129 3130 3132 3134 3136 3137 3138 3139 3140 3141 3143 3146 3146 3146 3145 3144 3143 3139 3129 3128 3131 3132 3130 3116 3106 3111 3114 3114 3117 3119 3119 3119 3118 3118 3118 3118 3118 3118 3118
3057 3060 3061 3061 3062 3063 3065 3070 3073 3076 3079 3082 3083 3084 3086 3086 3085 3085 3086 3089 3086 3079 3079 3084 3085 3088 3092 3093 3095 3097 3100 3102 3103 3106 3109 3111 3112 3113 3114 3115 3117 3119 3117 3118 3121 3122 3122 3122 3123 3125 3126 3128 3129 3130 3131 3132 3134 3134 3136 3139 3142 3145 3147 3144 3141 3138 3132 3126 3126 3129 3130 3122 3108 3104 3108 3110 3112 3115 3115 3117 3116 3115 3115 3115 3115 3116 3115 3116
3052 3055 3056 3055 3057 3059 3061 3065 3067 3069 3072 3074 3075 3077 3079 3077 3074 3076 3077 3077 3079 3078 3078 3081 3082 3085 3088 3089 3091 3094 3097 3098 3100 3103 3105 3107 3107 3107 3109 3111 3112 3114 3115 3117 3117 3117 3119 3118 3118 3120 3121 3122 3123 3124 3126 3128 3130 3131 3132 3136 3136 3138 3141 3137 3134 3132 3128 3125 3125 3127 3125 3114 3105 3104 3104 3106 3110 3112 3112 3114 3114 3113 3113 3113 3113 3113 3113 3113
3048 3049 3051 3051 3051 3052 3056 3059 3060 3063 3063 3064 3067 3068 3067 3066 3065 3065 3063 3064 3072 3076 3077 3079 3081 3082 3084 3087 3089 3091 3093 3094 3096 3100 3100 3100 3101 3101 3104 3105 3107 3109 3112 3113 3113 3113 3114 3112 3113 3116 3117 3118 3120 3121 3123 3125 3128 3129 3130 3133 3131 3131 3133 3131 3129 3128 3127 3125 3122 3121 3115 3105 3101 3101 3101 3104 3106 3108 3110 3110 3111 3111 3110 3110 3110 3110 3111 3110
3042 3044 3045 3045 3043 3046 3051 3054 3054 3055 3055 3056 3059 3057 3053 3052 3051 3052 3052 3057 3066 3072 3075 3078 3079 3080 3081 3083 3085 3087 3089 3090 3092 3095 3095 3096 3096 3097 3098 3100 3102 3104 3105 3107 3107 3108 3109 3109 3109 3112 3113 3116 3118 3118 3120 3121 3123 3125 3125 3126 3126 3127 3130 3130 3128 3126 3128 3125 3116 3111 3106 3101 3100 3097 3096 3101 3102 3103 3107 3106 3107 3108 3106 3107 3107 3107 3108 3108
3036 3037 3038 3037 3038 3041 3045 3049 3049 3049 3048 3048 3047 3044 3042 3041 3043 3047 3051 3055 3062 3068 3071 3073 3073 3075 3077 3078 3079 3081 3084 3087 3088 3090 3090 3092 3091 3090 3093 3095 3098 3099 3100 3103 3104 3104 3107 3106 3106 3108 3110 3113 3114 3115 3116 3116 3118 3120 3120 3121 3123 3126 3128 3129 3129 3126 3129 3125 3111 3104 3101 3100 3098 3091 3089 3096 3099 3100 3103 3103 3104 3104 3103 3104 3104 3104 3105 3105
3031 3032 3030 3030 3033 3037 3040 3043 3044 3043 3044 3042 3039 3038 3037 3035 3038 3044 3048 3052 3058 3063 3066 3067 3067 3069 3071 3073 3075 3077 3081 3082 3083 3085 3086 3088 3085 3084 3088 3091 3093 3096 3098 3101 3102 3103 3105 3104 3103 3105 3107 3109 3112 3112 3112 3112 3114 3116 3116 3118 3120 3123 3123 3125 3127 3124 3125 3123 3110 3101 3098 3093 3089 3086 3087 3092 3096 3098 3100 3100 3100 3101 3101 3101 3101 3102 3102 3102
3026 3026 3024 3025 3030 3034 3036 3037 3038 3038 3037 3036 3034 3032 3029 3028 3033 3041 3046 3050 3055 3057 3058 3059 3062 3065 3066 3068 3071 3074 3077 3077 3079 3080 3082 3083 3081 3080 3084 3087 3089 3093 3096 3098 3098 3100 3102 3102 3101 3100 3103 3107 3107 3107 3107 3108 3111 3112 3113 3115 3116 3118 3118 3119 3121 3118 3119 3119 3110 3101 3093 3081 3078 3081 3085 3089 3092 3095 3097 3097 3098 3099 3099 3099 3099 3100 3100 3100
3020 3018 3016 3020 3025 3029 3033 3033 3031 3030 3028 3028 3028 3024 3023 3026 3031 3037 3043 3047 3050 3052 3052 3054 3059 3061 3062 3064 3067 3070 3073 3073 3075 3076 3077 3078 3077 3077 3080 3084 3086 3090 3093 3095 3095 3097 3099 3098 3097 3096 3100 3101 3099 3099 3102 3104 3106 3107 3108 3110 3112 3114 3116 3115 3115 3113 3114 3114 3109 3103 3088 3072 3073 3080 3081 3085 3088 3091 3093 3094 3095 3096 3097 3097 3098 3098 3098 3098
3015 3012 3010 3016 3020 3024 3028 3027 3022 3021 3021 3023 3023 3021 3022 3026 3028 3032 3038 3043 3046 3048 3049 3051 3054 3056 3058 3060 3061 3064 3068 3069 3070 3072 3072 3073 3073 3073 3076 3080 3083 3087 3089 3090 3090 3092 3093 3093 3093 3093 3093 3092 3092 3097 3100 3102 3102 3101 3102 3103 3105 3109 3111 3112 3110 3107 3108 3106 3102 3101 3085 3065 3070 3079 3078 3082 3086 3087 3090 3091 3092 3094 3094 3095 3096 3096 3096 3096
3009 3006 3008 3014 3016 3018 3020 3017 3015 3016 3015 3015 3016 3016 3019 3022 3024 3027 3032 3038 3041 3044 3046 3048 3049 3052 3054 3056 3057 3060 3063 3065 3066 3067 3067 3067 3068 3070 3073 3077 3080 3083 3084 3084 3085 3086 3088 3089 3089 3088 3087 3088 3092 3096 3097 3098 3098 3098 3098 3099 3102 3104 3103 3104 3103 3099 3102 3100 3096 3100 3088 3064 3065 3075 3076 3080 3083 3084 3088 3089 3090 3091 3092 3093 3093 3093 3094 3093
3000 3001 3005 3009 3011 3013 3012 3009 3009 3010 3009 3011 3013 3015 3016 3019 3022 3024 3027 3033 3036 3039 3041 3042 3044 3048 3050 3052 3055 3056 3058 3060 3060 3060 3061 3062 3064 3067 3072 3074 3076 3078 3078 3079 3080 3082 3084 3084 3085 3086 3086 3087 3090 3091 3092 3093 3094 3094 3094 3095 3097 3096 3094 3097 3098 3096 3097 3093 3091 3098 3086 3063 3063 3072 3074 3078 3080 3081 3084 3085 3087 3088 3088 3090 3090 3090 3091 3090
2995 2997 3001 3003 3005 3007 3004 3001 3002 3003 3005 3009 3011 3012 3014 3016 3018 3019 3022 3026 3029 3032 3035 3037 3040 3043 3046 3049 3051 3052 3054 3055 3055 3055 3057 3058 3059 3063 3068 3070 3070 3072 3072 3073 3075 3078 3079 3078 3081 3084 3086 3086 3086 3086 3085 3085 3087 3087 3088 3089 3090 3090 3093 3095 3095 3096 3092 3083 3085 3092 3078 3060 3064 3071 3071 3075 3077 3078 3081 3082 3083 3085 3085 3086 3087 3087 3087 3087
2991 2992 2994 2997 2999 2998 2996 2997 2998 2997 3000 3003 3004 3006 3009 3010 3011 3014 3017 3021 3025 3028 3031 3033 3036 3039 3042 3046 3047 3048 3050 3050 3050 3051 3053 3054 3055 3059 3063 3065 3066 3066 3067 3070 3072 3074 3072 3069 3072 3077 3080 3080 3076 3074 3073 3075 3079 3081 3081 3083 3084 3086 3089 3089 3090 3092 3083 3074 3079 3081 3067 3059 3065 3069 3069 3072 3074 3075 3078 3079 3080 3081 3081 3082 3083 3084 3084 3084
2986 2985 2987 2990 2992 2991 2991 2993 2995 2993 2995 2998 2999 3002 3004 3005 3007 3010 3014 3017 3020 3024 3026 3028 3031 3034 3037 3040 3042 3044 3045 3046 3047 3047 3048 3050 3052 3054 3057 3060 3061 3061 3064 3066 3067 3068 3066 3063 3066 3068 3069 3067 3064 3063 3067 3070 3073 3074 3073 3075 3078 3079 3081 3083 3085 3080 3073 3073 3073 3066 3061 3061 3062 3065 3068 3069 3071 3072 3074 3076 3077 3077 3078 3078 3079 3080 3081 3081
2978 2977 2979 2983 2985 2986 2986 2987 2989 2989 2991 2994 2995 2996 2999 3001 3003 3006 3009 3011 3013 3017 3021 3023 3025 3028 3031 3034 3036 3038 3040 3042 3043 3043 3044 3046 3048 3050 3051 3053 3054 3056 3059 3059 3059 3061 3060 3058 3061 3062 3061 3061 3059 3061 3066 3067 3066 3067 3068 3070 3071 3073 3075 3076 3072 3066 3069 3075 3065 3055 3062 3062 3054 3059 3066 3065 3068 3070 3070 3072 3072 3073 3074 3075 3075 3076 3076 3077
2971 2971 2974 2978 2979 2979 2980 2981 2983 2985 2986 2988 2990 2991 2993 2995 2998 3000 3001 3004 3008 3011 3014 3017 3019 3021 3024 3027 3030 3032 3035 3038 3039 3039 3039 3041 3044 3046 3047 3048 3049 3050 3052 3052 3052 3054 3053 3051 3053 3055 3055 3056 3056 3058 3061 3062 3061 3062 3064 3064 3065 3067 3067 3063 3060 3061 3067 3070 3057 3052 3061 3057 3047 3056 3062 3061 3065 3067 3066 3068 3068 3069 3071 3071 3071 3072 3072 3073
2967 2967 2969 2972 2972 2973 2976 2979 2981 2980 2981 2983 2984 2986 2988 2990 2991 2994 2996 2999 3002 3005 3008 3010 3011 3013 3018 3022 3026 3027 3029 3032 3033 3032 3033 3036 3039 3041 3043 3044 3045 3046 3048 3047 3047 3049 3048 3046 3048 3050 3050 3051 3051 3052 3055 3057 3058 3058 3058 3059 3059 3058 3055 3053 3056 3060 3063 3061 3054 3053 3057 3050 3044 3052 3057 3058 3062 3061 3061 3063 3064 3065 3066 3066 3066 3067 3067 3068
2962 2962 2964 2966 2966 2968 2971 2974 2976 2976 2977 2979 2979 2980 2982 2984 2986 2989 2992 2993 2995 2998 3002 3003 3004 3008 3013 3017 3020 3020 3022 3025 3026 3027 3030 3032 3034 3036 3037 3039 3041 3043 3044 3043 3043 3044 3044 3043 3045 3047 3047 3047 3045 3046 3051 3053 3053 3053 3053 3053 3050 3048 3048 3051 3054 3056 3057 3054 3049 3052 3053 3043 3039 3047 3052 3053 3055 3055 3056 3057 3058 3060 3061 3061 3062 3062 3063 3064
2956 2959 2961 2961 2960 2962 2964 2966 2969 2971 2971 2973 2974 2976 2978 2979 2981 2985 2987 2988 2990 2993 2996 2998 3000 3005 3009 3011 3013 3013 3015 3020 3023 3025 3028 3029 3030 3032 3033 3034 3037 3038 3038 3039 3039 3040 3040 3040 3042 3044 3044 3041 3039 3042 3047 3048 3049 3050 3048 3042 3038 3040 3045 3047 3048 3048 3049 3047 3047 3050 3046 3035 3034 3043 3047 3047 3048 3050 3051 3052 3053 3055 3055 3055 3057 3057 3058 3059
2952 2954 2956 2956 2954 2955 2958 2960 2963 2964 2964 2966 2970 2973 2975 2976 2979 2982 2983 2984 2988 2990 2993 2996 2999 3002 3003 3005 3007 3008 3012 3017 3019 3021 3024 3024 3026 3028 3029 3030 3031 3033 3034 3036 3036 3036 3037 3038 3039 3040 3040 3037 3036 3038 3041 3044 3045 3042 3034 3027 3029 3037 3041 3040 3039 3040 3041 3042 3043 3042 3035 3031 3035 3040 3040 3040 3042 3044 3045 3047 3049 3049 3049 3050 3052 3053 3054 3054